15min,AgWx,beryljct,423,23NOV2019:00:00:00,29.3,12.93,30.6,30.2,30.1,30.3,29.9,96,96,95,0.544,29.0,29.3,28.8,0,0.4,14,15,1.3,-0.00021,-0.00031,40.1,43.5,21,0,.,.,7.45,0.00,0.00
15min,AgWx,beryljct,423,23NOV2019:00:15:00,29.8,12.91,31.0,30.7,30.6,30.8,30.2,96,96,96,0.554,29.6,29.8,29.2,0.702,0.4,0.1,0.0,1.4,-0.00021,-0.00031,40.0,43.5,22,0,.,.,7.45,0.00,0.00
15min,AgWx,beryljct,423,23NOV2019:00:30:00,30.6,12.92,31.7,31.3,31.0,31.3,30.7,96,96,96,0.568,30.0,30.2,29.6,1.951,1.1,350,13,2.3,-0.00018,-0.00025,39.9,43.4,22,0,.,.,7.45,0.00,0.00
15min,AgWx,beryljct,423,23NOV2019:00:45:00,31.3,12.91,31.6,31.4,31.3,31.5,31.2,96,96,96,0.570,30.3,30.5,30.1,1.995,2.1,340,9.2,3.0,-0.00015,-0.00019,39.8,43.4,22,0,.,.,7.45,0.00,0.00
15min,AgWx,beryljct,423,23NOV2019:01:00:00,31.7,12.91,31.6,31.5,31.4,31.8,31.2,96,96,96,0.572,30.4,30.9,30.2,2.521,2.3,347,8.7,3.1,-0.00014,-0.00018,39.7,43.3,21,0,.,.,7.45,0.00,0.00
15min,AgWx,beryljct,423,23NOV2019:01:15:00,31.9,12.91,31.8,31.3,31.3,31.6,30.9,96,96,95,0.571,30.2,30.6,29.8,3.42,2.6,353,6.0,3.7,-0.00014,-0.00017,39.6,43.3,21,0,.,.,7.45,0.00,0.00
15min,AgWx,beryljct,423,23NOV2019:01:30:00,31.6,12.9,31.7,31.0,30.9,31.4,30.6,96,97,96,0.567,29.9,30.5,29.6,3.069,1.0,351,4.5,3.2,-0.00018,-0.00025,39.5,43.2,22,0,.,.,7.46,0.00,0.00
15min,AgWx,beryljct,423,23NOV2019:01:45:00,31.1,12.9,30.9,30.5,30.8,31.3,30.2,96,97,96,0.555,29.9,30.5,29.3,0,0.7,5.8,3.7,3.3,-0.00019,-0.00028,39.4,43.2,21,0,.,.,7.45,0.00,0.00
15min,AgWx,beryljct,423,23NOV2019:02:00:00,30.5,12.89,30.4,30.9,30.7,31.0,30.4,97,97,97,0.564,30.0,30.2,29.6,1.863,0.5,278,16,2.7,-0.00020,-0.00030,39.3,43.1,22,0,.,.,7.45,0.00,0.00
15min,AgWx,beryljct,423,23NOV2019:02:15:00,30.5,12.89,31.3,31.4,31.3,31.9,30.5,96,97,94,0.563,30.3,30.8,29.5,2.083,1.8,336,41,3.3,-0.00016,-0.00021,39.3,43.0,21,0,.,.,7.46,0.00,0.00
15min,AgWx,beryljct,423,23NOV2019:02:30:00,30.5,12.87,31.1,30.6,30.5,31.5,29.8,95,96,94,0.555,29.2,30.0,28.4,2.74,2.2,320,23,2.8,-0.00014,-0.00018,39.2,43.0,21,0,.,.,7.46,0.00,0.00
15min,AgWx,beryljct,423,23NOV2019:02:45:00,30.3,12.88,31.2,31.1,30.7,31.2,30.3,96,96,95,0.560,29.6,30.2,29.0,1.732,1.8,313,12,2.7,-0.00015,-0.00020,39.1,42.9,21,0,.,.,7.46,0.00,0.00
15min,AgWx,beryljct,423,23NOV2019:03:00:00,30.3,12.87,30.9,30.8,31.1,31.3,30.8,95,95,94,0.546,29.8,30.1,29.2,2.455,3.0,353,17,4.9,-0.00012,-0.00015,39.0,42.9,22,0,.,.,7.46,0.00,0.00
15min,AgWx,beryljct,423,23NOV2019:03:15:00,30.5,12.87,30.9,30.5,30.5,30.9,30.3,94,94,93,0.539,28.9,29.2,28.6,0.921,0.9,358,18,3.1,-0.00018,-0.00026,39.0,42.8,21,0,.,.,7.46,0.00,0.00
15min,AgWx,beryljct,423,23NOV2019:03:30:00,30.8,12.86,31.0,30.6,30.6,30.7,30.5,93,94,93,0.536,28.9,29.1,28.7,2.368,2.1,12,13,3.5,-0.00014,-0.00018,38.9,42.8,21,0,.,.,7.46,0.00,0.00
15min,AgWx,beryljct,423,23NOV2019:03:45:00,31.1,12.86,31.4,31.1,30.9,31.1,30.6,92,93,91,0.539,28.8,28.9,28.6,1.82,2.7,14,10,4.3,-0.00012,-0.00014,38.8,42.7,21,0,.,.,7.45,0.00,0.00
15min,AgWx,beryljct,423,23NOV2019:04:00:00,31.5,12.86,31.3,30.9,31.1,31.3,30.9,92,93,91,0.545,29.1,29.3,28.9,2.477,2.6,351,31,4.0,-0.00012,-0.00015,38.7,42.7,21,0,.,.,7.46,0.00,0.00
15min,AgWx,beryljct,423,23NOV2019:04:15:00,31.8,12.86,31.8,31.3,31.2,31.3,30.9,93,93,92,0.549,29.3,29.5,29.1,0.592,1.6,302,18,3.2,-0.00016,-0.00021,38.7,42.6,21,0,.,.,7.46,0.01,0.00
15min,AgWx,beryljct,423,23NOV2019:04:30:00,31.9,12.85,31.8,31.6,31.6,31.8,31.4,91,93,90,0.547,29.3,29.5,29.1,2.411,1.4,4.6,19,2.9,-0.00016,-0.00022,38.6,42.6,21,0,.,.,7.46,0.00,0.00
15min,AgWx,beryljct,423,23NOV2019:04:45:00,32.1,12.84,32.4,31.9,31.9,32.5,31.5,90,91,87,0.550,29.3,29.7,28.9,3.793,3.3,34,18,7.7,-0.00010,-0.00012,38.6,42.5,21,0,.,.,7.46,0.00,0.00
15min,AgWx,beryljct,423,23NOV2019:05:00:00,32.3,12.82,32.4,32.2,32.1,32.3,31.9,91,92,90,0.557,29.7,30.0,29.5,2.368,3.0,28,16,4.8,-0.00011,-0.00013,38.5,42.5,21,0,.,.,7.46,0.00,0.00
15min,AgWx,beryljct,423,23NOV2019:05:15:00,32.5,12.84,33.1,32.7,32.4,32.8,32.2,90,91,88,0.554,29.7,29.8,29.5,4.516,3.5,27,15,5.2,-0.00010,-0.00011,38.5,42.4,21,0,.,.,7.46,0.00,0.00
15min,AgWx,beryljct,423,23NOV2019:05:30:00,32.6,12.83,33.1,32.8,32.7,32.9,32.6,89,89,88,0.554,29.7,29.9,29.5,4.45,4.4,27,12,6.4,-0.00008,-0.00008,38.4,42.4,21,0,.,.,7.46,0.00,0.00
15min,AgWx,beryljct,423,23NOV2019:05:45:00,32.9,12.82,33.2,32.9,32.8,33.1,32.5,89,91,88,0.567,29.9,30.3,29.6,2.938,3.7,12,16,5.9,-0.00009,-0.00010,38.4,42.3,21,0,.,.,7.46,0.00,0.00
15min,AgWx,beryljct,423,23NOV2019:06:00:00,33.0,12.83,33.3,33.1,33.0,33.2,32.8,89,90,89,0.570,30.2,30.4,30.1,3.332,3.9,38,10,6.7,-0.00009,-0.00010,38.3,42.3,21,0,.,.,7.46,0.00,0.00
15min,AgWx,beryljct,423,23NOV2019:06:15:00,33.2,12.82,33.4,33.3,33.2,33.4,33.1,88,90,87,0.565,30.1,30.5,29.8,4.209,4.4,27,12,6.9,-0.00008,-0.00008,38.3,42.2,21,0,.,.,7.46,0.00,0.00
15min,AgWx,beryljct,423,23NOV2019:06:30:00,33.3,12.8,32.6,32.3,32.8,33.2,32.3,90,92,88,0.572,30.1,30.4,29.9,2.214,3.1,355,22,4.7,-0.00011,-0.00013,38.2,42.2,21,0,.,.,7.46,0.00,0.00
15min,AgWx,beryljct,423,23NOV2019:06:45:00,33.3,12.8,33.4,33.0,32.6,33.0,32.3,92,93,89,0.565,30.4,30.6,30.1,4.669,2.9,1.5,26,5.4,0.00004,0.00007,38.2,42.1,21,0,.,.,7.46,0.00,0.00
15min,AgWx,beryljct,423,23NOV2019:07:00:00,33.3,12.8,33.3,32.9,33.0,33.2,32.9,89,89,88,0.566,30.1,30.2,29.9,2.609,3.7,34,7.2,5.8,0.00007,0.00012,38.1,42.1,21,0,.,.,7.46,0.00,0.00
15min,AgWx,beryljct,423,23NOV2019:07:15:00,33.4,12.81,32.7,32.9,33.0,33.3,32.9,89,89,87,0.555,30.0,30.2,29.6,2.324,2.5,25,27,3.5,0.00006,0.00009,38.1,42.0,21,1,.,.,7.46,0.00,0.00
15min,AgWx,beryljct,423,23NOV2019:07:30:00,33.1,12.8,33.0,33.2,33.1,33.5,32.6,87,90,85,0.547,29.7,30.1,29.3,2.565,2.6,350,20,3.3,0.00008,0.00012,38.0,42.0,21,5,.,.,7.46,0.00,0.00
15min,AgWx,beryljct,423,23NOV2019:07:45:00,32.3,12.84,29.7,30.4,31.9,33.2,30.4,89,91,86,0.511,29.0,29.5,27.6,2.017,2.4,335,7.8,3.3,0.00011,0.00015,38.0,42.0,21,15,.,.,7.46,0.00,0.00
15min,AgWx,beryljct,423,23NOV2019:08:00:00,31.5,13.32,31.1,30.9,30.3,31.0,29.8,92,93,89,0.533,28.1,28.9,27.2,1.71,2.0,318,4.9,3.2,0.00025,0.00028,38.0,41.9,21,66,.,.,7.46,0.00,0.00
15min,AgWx,beryljct,423,23NOV2019:08:15:00,31.8,13.87,32.3,31.8,31.7,32.3,31.0,90,91,90,0.549,29.3,29.7,28.7,1.841,2.1,316,6.7,3.4,0.00036,0.00041,37.9,41.9,21,107,.,.,7.46,0.00,0.00
15min,AgWx,beryljct,423,23NOV2019:08:30:00,33.1,14.76,33.0,32.7,32.4,32.8,31.9,91,92,90,0.575,30.0,30.7,29.4,2.17,2.2,339,6.1,2.7,0.00048,0.00054,37.9,41.8,21,147,.,.,7.46,0.00,0.00
15min,AgWx,beryljct,423,23NOV2019:08:45:00,34.8,14.71,34.5,34.2,33.5,34.2,32.7,89,92,86,0.574,30.6,30.9,30.5,2.959,3.3,350,13,4.7,0.00062,0.00070,37.9,41.8,21,187,.,.,7.46,0.00,0.00
15min,AgWx,beryljct,423,23NOV2019:09:00:00,36.2,14.76,35.1,35.1,34.6,35.1,34.2,85,86,84,0.582,30.5,30.9,30.2,2.981,3.6,3.7,8.3,4.7,0.00079,0.00090,37.8,41.7,21,228,.,.,7.46,0.00,0.00
15min,AgWx,beryljct,423,23NOV2019:09:15:00,37.6,14.64,35.9,35.6,35.4,35.7,35.0,83,85,80,0.568,30.6,31.3,29.8,4.691,3.9,18,11,5.6,0.00095,0.00108,37.8,41.7,21,268,.,.,7.46,0.00,0.00
15min,AgWx,beryljct,423,23NOV2019:09:30:00,38.9,14.67,36.8,36.4,36.1,36.5,35.6,80,82,77,0.557,30.4,31.1,29.7,3.244,4.1,29,16,5.7,0.00111,0.00128,37.7,41.7,21,308,.,.,7.46,0.00,0.00
15min,AgWx,beryljct,423,23NOV2019:09:45:00,40.1,14.7,37.9,36.9,36.8,37.3,36.3,75,77,73,0.540,29.5,30.3,28.8,7.695,4.8,35,12,7.7,0.00128,0.00150,37.7,41.6,21,346,.,.,7.46,0.00,0.00
15min,AgWx,beryljct,423,23NOV2019:10:00:00,41.1,14.59,37.4,37.4,37.3,37.8,36.8,72,74,69,0.539,29.0,29.9,28.0,4.911,5.3,40,13,7.5,0.00143,0.00169,37.7,41.6,21,382,.,.,7.46,0.00,0.00
15min,AgWx,beryljct,423,23NOV2019:10:15:00,42.0,14.6,38.1,37.7,37.7,38.0,37.4,70,72,69,0.534,29.0,29.4,28.4,6.292,6.0,46,13,8.5,0.00156,0.00185,37.6,41.6,21,415,.,.,7.46,0.00,0.00
15min,AgWx,beryljct,423,23NOV2019:10:30:00,42.7,14.69,38.7,38.3,38.1,38.9,37.4,69,72,67,0.537,29.0,30.0,27.8,7.059,4.6,27,20,8.3,0.00170,0.00197,37.6,41.5,21,444,.,.,7.46,0.00,0.00
15min,AgWx,beryljct,423,23NOV2019:10:45:00,43.5,14.16,39.0,39.2,38.8,39.7,38.2,66,68,64,0.523,28.5,29.7,27.8,5.283,5.9,47,14,10.8,0.00183,0.00217,37.7,41.5,21,474,.,.,7.45,0.00,0.00
15min,AgWx,beryljct,423,23NOV2019:11:00:00,44.1,14.13,39.8,40.1,39.3,40.1,38.8,65,67,63,0.556,28.4,29.8,27.6,10.33,6.4,47,19,10.4,0.00195,0.00233,37.7,41.4,21,503,.,.,7.45,0.00,0.00
15min,AgWx,beryljct,423,23NOV2019:11:15:00,44.4,14.13,39.9,39.4,39.4,40.2,38.8,64,66,62,0.522,28.2,29.5,27.0,4.911,7.1,53,20,10.8,0.00181,0.00220,37.8,41.4,21,447,.,.,7.45,0.00,0.00
15min,AgWx,beryljct,423,23NOV2019:11:30:00,44.1,14.17,39.1,39.6,39.4,40.1,38.7,66,68,63,0.534,28.8,30.2,28.0,8.9,7.1,34,14,10.7,0.00169,0.00206,38.0,41.4,21,412,.,.,7.45,0.00,0.00
15min,AgWx,beryljct,423,23NOV2019:11:45:00,44.0,14.15,40.6,40.4,40.1,40.8,39.3,64,66,62,0.527,28.8,30.0,28.0,7.629,7.8,37,19,11.3,0.00200,0.00243,38.2,41.3,21,506,.,.,7.45,0.00,0.00
15min,AgWx,beryljct,423,23NOV2019:12:00:00,44.3,14.15,40.8,41.1,40.6,41.3,40.1,62,63,61,0.543,28.6,29.8,27.5,11.09,7.6,51,18,11.6,0.00217,0.00262,38.5,41.3,21,549,.,.,7.45,0.00,0.00
15min,AgWx,beryljct,423,23NOV2019:12:15:00,44.8,14.11,41.5,41.0,41.4,42.1,40.9,61,63,59,0.513,29.0,30.0,27.7,5.524,7.9,31,15,12.4,0.00224,0.00272,38.8,41.3,21,555,.,.,7.45,0.00,0.00
15min,AgWx,beryljct,423,23NOV2019:12:30:00,45.2,14.21,40.8,41.5,41.6,42.1,41.0,60,61,59,0.534,28.7,29.5,27.8,8.26,8.4,35,17,13.0,0.00227,0.00278,39.1,41.3,21,557,.,.,7.45,0.00,0.00
15min,AgWx,beryljct,423,23NOV2019:12:45:00,45.7,14.1,41.2,42.0,42.1,42.8,41.4,59,61,57,0.521,28.7,29.8,27.7,7.607,7.8,33,19,11.4,0.00230,0.00281,39.5,41.2,21,554,.,.,7.45,0.00,0.00
15min,AgWx,beryljct,423,23NOV2019:13:00:00,46.1,14.08,43.9,43.1,42.5,43.4,41.8,58,60,57,0.542,28.8,29.7,27.5,10.57,8.1,34,19,12.7,0.00229,0.00282,39.8,41.3,21,547,.,.,7.45,0.00,0.00
15min,AgWx,beryljct,423,23NOV2019:13:15:00,46.6,14.04,43.0,43.3,42.9,43.4,42.1,57,59,56,0.538,28.8,29.7,27.4,12.23,7.4,46,18,13.5,0.00229,0.00281,40.2,41.3,21,538,.,.,7.44,0.00,0.00
15min,AgWx,beryljct,423,23NOV2019:13:30:00,46.9,14.15,44.7,43.4,43.2,43.9,42.6,56,58,55,0.545,28.7,30.0,27.6,5.809,8.0,57,15,13.5,0.00226,0.00281,40.5,41.3,21,525,.,.,7.44,0.00,0.00
15min,AgWx,beryljct,423,23NOV2019:13:45:00,47.3,14.01,44.4,44.4,43.6,44.5,43.1,57,59,55,0.562,29.2,30.4,27.9,10.41,8.2,49,14,11.8,0.00221,0.00276,40.9,41.3,21,507,.,.,7.44,0.00,0.00
15min,AgWx,beryljct,423,23NOV2019:14:00:00,47.7,14,43.7,44.0,43.8,44.4,43.4,56,58,54,0.547,29.1,29.8,28.3,6.62,8.0,43,15,11.7,0.00207,0.00262,41.2,41.3,21,469,.,.,7.44,0.00,0.00
15min,AgWx,beryljct,423,23NOV2019:14:15:00,48.1,14.03,44.0,43.8,44.0,44.5,43.7,55,57,53,0.529,29.0,30.0,28.0,6.16,8.2,40,16,12.1,0.00206,0.00262,41.5,41.3,21,461,.,.,7.44,0.00,0.00
15min,AgWx,beryljct,423,23NOV2019:14:30:00,48.5,14,43.9,44.5,44.3,44.9,43.7,55,57,54,0.553,29.2,30.2,28.3,8.37,8.1,53,14,12.8,0.00194,0.00249,41.8,41.3,21,427,.,.,7.43,0.00,0.00
15min,AgWx,beryljct,423,23NOV2019:14:45:00,48.9,13.99,43.8,45.2,44.6,45.4,43.9,55,56,54,0.562,29.5,30.7,28.4,8.15,7.4,49,12,11.8,0.00184,0.00237,42.1,41.4,21,403,.,.,7.43,0.00,0.00
15min,AgWx,beryljct,423,23NOV2019:15:00:00,49.1,13.99,44.7,44.8,44.5,45.1,44.1,54,55,53,0.541,28.8,29.7,28.1,11.2,8.6,55,12,14.5,0.00174,0.00232,42.4,41.4,21,370,.,.,7.43,0.00,0.00
15min,AgWx,beryljct,423,23NOV2019:15:15:00,49.3,13.96,44.6,44.7,44.8,45.5,44.5,54,56,53,0.542,29.3,30.6,28.7,11.33,7.9,51,15,12.4,0.00158,0.00213,42.6,41.5,21,334,.,.,7.43,0.00,0.00
15min,AgWx,beryljct,423,23NOV2019:15:30:00,49.3,14.07,44.3,44.8,44.9,45.2,44.6,54,56,54,0.542,29.4,30.4,28.9,8.75,8.5,57,11,11.3,0.00145,0.00201,42.8,41.6,21,297,.,.,7.43,0.00,0.00
15min,AgWx,beryljct,423,23NOV2019:15:45:00,49.3,13.98,44.8,44.8,44.8,45.2,44.6,55,56,54,0.563,29.6,30.4,28.9,9.25,8.0,64,12,10.8,0.00126,0.00178,42.9,41.6,21,257,.,.,7.43,0.00,0.00
15min,AgWx,beryljct,423,23NOV2019:16:00:00,49.1,14.01,44.5,44.4,44.6,44.9,44.4,56,57,55,0.567,29.9,30.3,29.3,10.24,8.9,50,12,12.0,0.00111,0.00164,43.1,41.7,21,217,.,.,7.43,0.00,0.00
15min,AgWx,beryljct,423,23NOV2019:16:15:00,48.7,14,44.0,43.9,44.2,44.5,43.9,57,58,56,0.562,30.0,30.5,29.3,11.33,9.6,55,9.4,13.6,0.00095,0.00148,43.2,41.7,21,176,.,.,7.43,0.00,0.00
15min,AgWx,beryljct,423,23NOV2019:16:30:00,48.0,14.04,43.2,43.4,43.7,43.9,43.4,58,59,57,0.564,30.0,30.4,29.5,7.344,9.4,57,10,12.4,0.00038,0.00045,43.2,41.8,21,136,.,.,7.43,0.00,0.00
15min,AgWx,beryljct,423,23NOV2019:16:45:00,47.1,14.06,42.6,42.6,43.0,43.4,42.6,61,63,59,0.574,30.5,31.1,30.1,7.76,8.3,53,8.5,11.6,0.00029,0.00035,43.3,41.9,21,97,.,.,7.43,0.00,0.00
15min,AgWx,beryljct,423,23NOV2019:17:00:00,45.9,13.34,41.6,41.3,42.0,42.7,41.3,64,66,62,0.583,30.7,30.9,30.5,8.83,7.9,54,7.5,11.0,0.00020,0.00026,43.2,42.0,21,51,.,.,7.43,0.00,0.00
15min,AgWx,beryljct,423,23NOV2019:17:15:00,44.2,13.22,40.5,40.3,40.9,41.4,40.3,66,68,65,0.575,30.5,30.8,30.3,6.971,7.7,57,7.6,11.5,0.00013,0.00017,43.2,42.0,21,12,.,.,7.43,0.00,0.00
15min,AgWx,beryljct,423,23NOV2019:17:30:00,42.2,13.16,38.3,38.7,39.4,40.3,38.6,70,72,68,0.573,30.4,30.6,30.2,4.253,6.0,63,5.9,8.2,0.00006,0.00009,43.1,42.1,21,4,.,.,7.43,0.00,0.00
15min,AgWx,beryljct,423,23NOV2019:17:45:00,40.4,13.12,37.5,37.6,38.1,38.6,37.6,73,74,72,0.564,30.1,30.4,29.9,4.626,5.3,59,7.0,6.9,0.00001,0.00003,43.0,42.2,21,1,.,.,7.44,0.00,0.00
15min,AgWx,beryljct,423,23NOV2019:18:00:00,38.9,13.1,36.2,36.4,36.9,37.6,36.4,75,76,74,0.554,29.9,30.1,29.6,3.793,4.1,61,5.1,5.3,-0.00003,-0.00002,42.8,42.2,21,0,.,.,7.44,0.00,0.00
15min,AgWx,beryljct,423,23NOV2019:18:15:00,37.5,13.08,35.3,35.4,35.8,36.4,35.4,78,79,76,0.546,29.5,29.7,29.3,2.718,3.3,66,4.2,4.2,-0.00007,-0.00007,42.6,42.3,21,0,.,.,7.44,0.00,0.00
15min,AgWx,beryljct,423,23NOV2019:18:30:00,36.2,13.06,34.7,34.8,35.1,35.4,34.8,79,79,78,0.537,29.1,29.4,28.8,1.929,2.2,59,8.0,3.4,-0.00011,-0.00014,42.4,42.3,21,0,.,.,7.44,0.00,0.00
15min,AgWx,beryljct,423,23NOV2019:18:45:00,35.1,13.05,34.9,34.6,34.7,34.9,34.6,79,80,79,0.539,28.9,29.1,28.7,1.14,1.5,53,7.3,2.1,-0.00015,-0.00019,42.2,42.4,21,0,.,.,7.44,0.00,0.00
15min,AgWx,beryljct,423,23NOV2019:19:00:00,34.2,13.05,34.2,34.0,34.3,34.6,34.0,80,81,79,0.534,28.8,28.9,28.6,0,0.9,42,9.8,2.3,-0.00018,-0.00026,42.0,42.4,21,0,.,.,7.44,0.00,0.00
15min,AgWx,beryljct,423,23NOV2019:19:15:00,33.3,13.03,33.3,33.2,33.5,34.0,33.1,82,83,80,0.525,28.5,28.8,28.2,0,0.1,46,1.0,0.6,-0.00025,-0.00039,41.8,42.5,21,0,.,.,7.44,0.00,0.00
15min,AgWx,beryljct,423,23NOV2019:19:30:00,32.6,13.02,33.6,32.9,33.4,33.8,32.8,82,83,81,0.519,28.4,28.9,27.9,0,0.1,333,7.8,1.0,-0.00024,-0.00038,41.5,42.5,21,0,.,.,7.44,0.00,0.00
15min,AgWx,beryljct,423,23NOV2019:19:45:00,32.1,13.02,33.8,33.5,33.3,33.6,32.9,82,83,81,0.529,28.4,28.7,28.1,0,0.1,34,0.0,0.7,-0.00024,-0.00039,41.3,42.5,21,0,.,.,7.44,0.00,0.00
15min,AgWx,beryljct,423,23NOV2019:20:00:00,31.7,13.01,33.4,33.0,33.2,33.6,32.9,82,83,81,0.519,28.3,28.6,27.9,0.57,0.2,336,41,1.9,-0.00023,-0.00036,41.1,42.5,21,0,.,.,7.45,0.00,0.00
15min,AgWx,beryljct,423,23NOV2019:20:15:00,31.5,12.99,33.2,32.6,33.0,33.5,32.6,82,83,81,0.510,28.1,28.6,27.6,0.438,0.4,113,45,2.1,-0.00022,-0.00033,40.9,42.6,21,0,.,.,7.45,0.00,0.00
15min,AgWx,beryljct,423,23NOV2019:20:30:00,31.1,12.99,32.2,32.4,32.6,32.9,32.4,83,83,82,0.516,27.9,28.1,27.7,0,0.5,46,7.2,1.5,-0.00021,-0.00031,40.8,42.6,21,0,.,.,7.45,0.00,0.00
15min,AgWx,beryljct,423,23NOV2019:20:45:00,30.6,12.98,31.9,31.8,32.1,32.4,31.8,84,85,83,0.511,27.8,28.0,27.4,0.153,0.5,21,4.5,1.6,-0.00020,-0.00030,40.6,42.6,21,0,.,.,7.45,0.00,0.00
15min,AgWx,beryljct,423,23NOV2019:21:00:00,30.4,12.98,30.9,30.6,31.5,31.8,30.5,85,86,84,0.495,27.5,27.8,26.7,0,0.2,306,1.7,1.1,-0.00022,-0.00034,40.4,42.6,21,0,.,.,7.45,0.00,0.00
15min,AgWx,beryljct,423,23NOV2019:21:15:00,30.1,12.95,31.5,31.1,30.6,31.1,29.9,87,88,86,0.515,27.2,27.9,26.3,0.811,1.4,346,23,2.7,-0.00015,-0.00020,40.3,42.5,21,0,.,.,7.45,0.00,0.00
15min,AgWx,beryljct,423,23NOV2019:21:30:00,29.8,12.96,31.2,31.1,31.1,31.3,30.9,87,88,87,0.515,27.7,27.9,27.5,0.614,1.0,19,13,2.1,-0.00017,-0.00024,40.1,42.5,21,0,.,.,7.45,0.00,0.00
15min,AgWx,beryljct,423,23NOV2019:21:45:00,29.6,12.95,30.7,30.7,30.9,31.1,30.7,87,88,87,0.508,27.6,27.7,27.4,1.6,0.9,356,8.3,1.8,-0.00018,-0.00025,40.0,42.5,21,0,.,.,7.45,0.00,0.00
15min,AgWx,beryljct,423,23NOV2019:22:00:00,29.5,12.95,30.4,30.0,30.5,30.7,30.0,88,89,88,0.495,27.4,27.6,26.8,0,1.9,311,15,2.9,-0.00013,-0.00017,39.8,42.5,20,0,.,.,7.45,0.00,0.00
15min,AgWx,beryljct,423,23NOV2019:22:15:00,29.1,12.95,30.2,30.2,30.2,30.5,30.0,89,90,88,0.506,27.4,27.7,26.8,0,0.1,270,5.7,0.7,-0.00023,-0.00036,39.7,42.5,21,0,.,.,7.46,0.00,0.00
15min,AgWx,beryljct,423,23NOV2019:22:30:00,28.8,12.93,30.0,29.4,29.8,30.4,28.9,89,90,88,0.493,26.9,27.6,25.7,1.995,0.8,159,19,2.7,-0.00018,-0.00026,39.6,42.4,21,0,.,.,7.46,0.00,0.00
15min,AgWx,beryljct,423,23NOV2019:22:45:00,28.6,12.93,31.4,30.6,30.0,30.6,29.4,89,90,87,0.505,27.0,27.6,26.4,1.293,1.6,175,9.9,2.9,-0.00015,-0.00019,39.4,42.4,20,0,.,.,7.45,0.00,0.00
15min,AgWx,beryljct,423,23NOV2019:23:00:00,28.6,12.92,30.0,30.1,30.7,31.2,30.1,86,88,85,0.482,27.0,27.7,26.1,1.008,2.2,102,12,3.7,-0.00012,-0.00015,39.3,42.4,21,0,.,.,7.46,0.00,0.00
15min,AgWx,beryljct,423,23NOV2019:23:15:00,28.5,12.91,30.6,30.2,30.3,30.7,29.9,86,87,85,0.493,26.7,27.2,26.2,0,0.8,84,4.8,2.0,-0.00018,-0.00025,39.2,42.3,21,0,.,.,7.45,0.00,0.00
15min,AgWx,beryljct,423,23NOV2019:23:30:00,28.3,12.92,30.9,30.5,30.5,30.7,30.2,87,87,86,0.498,27.1,27.4,26.8,0,0.2,20,22,1.1,-0.00022,-0.00034,39.1,42.3,21,0,.,.,7.46,0.00,0.00
15min,AgWx,beryljct,423,23NOV2019:23:45:00,28.1,12.91,31.2,30.7,30.2,30.8,29.8,87,88,86,0.504,26.9,27.3,26.3,1.03,0.6,310,16,2.3,-0.00019,-0.00028,39.0,42.3,21,0,.,.,7.46,0.00,0.00
15min,AgWx,bigpiney,439,23NOV2019:00:00:00,11.9,12.6,11.9,11.5,12.0,13.2,10.9,90,91,87,0.233,9.5,11.0,8.0,2.806,1.2,268,60,3.0,-0.00010,-0.00013,33.0,34.4,50,0,1,0.0,5.62,0.00,0.00
15min,AgWx,bigpiney,439,23NOV2019:00:15:00,11.9,12.59,12.8,12.2,12.5,13.4,11.3,91,92,89,0.236,10.3,11.4,8.9,2.28,2.3,250,8.5,2.8,-0.00008,-0.00010,33.0,34.4,50,0,1,0.0,5.62,0.00,0.00
15min,AgWx,bigpiney,439,23NOV2019:00:30:00,12.0,12.58,10.0,10.4,13.1,15.2,10.4,90,93,85,0.208,10.6,13.4,6.8,5.568,3.9,225,15,6.1,-0.00005,-0.00006,33.0,34.4,50,0,1,0.0,5.62,0.00,0.00
15min,AgWx,bigpiney,439,23NOV2019:00:45:00,11.9,12.58,10.6,9.9,9.9,10.2,9.8,87,87,85,0.208,6.8,7.1,6.5,5.174,4.9,212,5.3,6.3,-0.00003,-0.00003,33.0,34.4,50,0,1,0.0,5.62,0.00,0.00
15min,AgWx,bigpiney,439,23NOV2019:01:00:00,11.9,12.56,11.3,10.5,10.4,10.8,9.9,88,88,87,0.215,7.4,8.0,6.9,5.612,5.7,213,4.1,6.7,-0.00003,-0.00003,33.0,34.4,50,0,1,0.0,5.62,0.00,0.00
15min,AgWx,bigpiney,439,23NOV2019:01:15:00,12.1,12.56,14.3,13.8,12.7,13.8,10.6,89,90,87,0.251,10.0,11.4,7.6,5.371,5.4,221,6.6,9.3,-0.00003,-0.00003,33.0,34.4,50,0,1,0.0,5.62,0.00,0.00
15min,AgWx,bigpiney,439,23NOV2019:01:30:00,12.5,12.55,12.7,12.2,11.9,13.8,11.1,87,89,85,0.234,8.7,11.0,7.7,3.551,4.9,217,7.0,5.9,-0.00004,-0.00004,33.0,34.4,50,0,1,0.0,5.62,0.00,0.00
15min,AgWx,bigpiney,439,23NOV2019:01:45:00,12.8,12.55,13.2,13.1,12.9,13.4,12.2,87,89,86,0.238,9.8,10.3,9.4,5.086,5.2,220,7.3,6.3,-0.00003,-0.00003,33.0,34.4,50,0,1,0.0,5.62,0.00,0.00
15min,AgWx,bigpiney,439,23NOV2019:02:00:00,13.0,12.54,14.6,13.4,13.1,13.4,12.8,86,87,85,0.239,9.7,10.1,9.3,4.998,5.6,225,8.7,7.5,-0.00003,-0.00003,33.0,34.4,50,0,1,0.0,5.62,0.00,0.00
15min,AgWx,bigpiney,439,23NOV2019:02:15:00,13.2,12.54,11.3,11.0,11.4,13.6,10.7,85,86,83,0.213,7.7,10.1,6.8,3.595,5.1,214,10,6.5,-0.00003,-0.00003,33.0,34.4,50,0,1,0.0,5.62,0.00,0.00
15min,AgWx,bigpiney,439,23NOV2019:02:30:00,12.9,12.53,8.9,8.6,9.7,11.0,8.3,85,87,83,0.191,6.1,7.5,4.4,0.044,1.8,166,62,3.4,-0.00007,-0.00009,33.0,34.5,50,0,1,0.0,5.62,0.00,0.00
15min,AgWx,bigpiney,439,23NOV2019:02:45:00,12.3,12.52,8.3,8.0,8.6,9.4,7.6,86,87,84,0.191,5.3,6.3,4.1,0.745,1.3,158,46,2.9,-0.00009,-0.00011,33.0,34.4,50,0,1,0.0,5.62,0.00,0.00
15min,AgWx,bigpiney,439,23NOV2019:03:00:00,11.6,12.52,7.6,7.5,7.4,8.1,7.1,87,88,85,0.186,4.3,5.0,3.7,2.302,2.1,329,17,3.4,-0.00006,-0.00008,33.0,34.4,50,0,1,0.0,5.62,0.00,0.00
15min,AgWx,bigpiney,439,23NOV2019:03:15:00,10.8,12.51,8.1,7.6,7.2,7.6,6.8,87,88,86,0.189,4.3,4.8,3.6,2.126,2.3,311,7.3,3.2,-0.00006,-0.00007,33.0,34.4,50,0,1,0.0,5.62,0.00,0.00
15min,AgWx,bigpiney,439,23NOV2019:03:30:00,10.1,12.51,10.0,9.1,8.4,9.1,7.6,88,89,87,0.204,5.5,6.4,4.7,1.096,0.6,259,64,1.9,-0.00011,-0.00015,33.0,34.4,50,0,1,0.0,5.62,0.00,0.00
15min,AgWx,bigpiney,439,23NOV2019:03:45:00,9.8,12.5,12.0,10.6,9.7,10.6,8.0,88,91,85,0.224,6.9,8.5,4.3,2.192,2.5,187,20,3.6,-0.00006,-0.00008,33.0,34.4,50,0,1,0.0,5.62,0.00,0.00
15min,AgWx,bigpiney,439,23NOV2019:04:00:00,9.6,12.5,8.9,8.6,10.5,11.5,8.6,88,91,86,0.194,7.5,8.9,5.3,3.793,2.8,221,6.2,4.1,-0.00006,-0.00007,33.0,34.4,50,0,1,0.0,5.62,0.00,0.00
15min,AgWx,bigpiney,439,23NOV2019:04:15:00,9.5,12.5,9.7,9.1,8.3,9.3,7.2,87,88,86,0.199,5.2,6.5,4.0,3.727,3.9,234,5.5,5.2,-0.00004,-0.00004,33.0,34.4,50,0,1,0.0,5.62,0.00,0.00
15min,AgWx,bigpiney,439,23NOV2019:04:30:00,9.4,12.5,8.6,8.4,9.0,9.6,8.4,86,87,86,0.192,5.8,6.5,4.9,3.771,4.2,227,4.3,5.4,-0.00004,-0.00004,33.0,34.4,50,0,1,0.0,5.62,0.00,0.00
15min,AgWx,bigpiney,439,23NOV2019:04:45:00,9.4,12.49,9.1,8.5,8.8,9.3,8.2,86,87,85,0.192,5.5,6.1,4.8,5.393,4.4,225,6.6,5.7,-0.00003,-0.00004,33.0,34.4,50,0,1,0.0,5.62,0.00,0.00
15min,AgWx,bigpiney,439,23NOV2019:05:00:00,9.4,12.49,8.2,7.9,8.2,8.9,7.6,86,87,85,0.188,4.9,5.8,4.1,4.845,5.3,215,5.2,6.4,-0.00003,-0.00002,33.0,34.4,50,0,1,0.0,5.62,0.00,0.00
15min,AgWx,bigpiney,439,23NOV2019:05:15:00,9.4,12.48,7.8,7.4,7.6,7.9,7.2,86,87,85,0.183,4.3,4.8,3.7,5.502,5.1,215,5.4,6.1,-0.00003,-0.00003,33.0,34.4,50,0,1,0.0,5.62,0.00,0.00
15min,AgWx,bigpiney,439,23NOV2019:05:30:00,9.3,12.48,8.1,7.3,7.4,7.8,6.6,86,87,84,0.184,4.0,4.6,2.9,1.995,3.6,228,29,6.1,-0.00004,-0.00004,33.0,34.4,50,0,1,0.0,5.62,0.00,0.00
15min,AgWx,bigpiney,439,23NOV2019:05:45:00,9.1,12.49,5.3,5.8,7.8,8.5,5.8,86,88,83,0.165,4.6,5.7,1.8,3.924,1.4,31,39,5.5,-0.00008,-0.00010,33.0,34.4,50,0,1,0.0,5.62,0.00,0.00
15min,AgWx,bigpiney,439,23NOV2019:06:00:00,8.7,12.48,3.4,2.9,4.2,5.6,2.8,86,87,83,0.147,0.9,1.7,-0.7,1.798,2.8,81,15,3.8,-0.00005,-0.00005,33.0,34.4,50,0,1,0.0,5.62,0.00,0.00
15min,AgWx,bigpiney,439,23NOV2019:06:15:00,8.0,12.48,3.0,2.6,3.2,4.1,2.6,87,89,85,0.147,0.1,1.4,-0.7,1.25,1.8,103,37,3.1,-0.00006,-0.00007,33.0,34.5,50,0,1,0.0,5.62,0.00,0.00
15min,AgWx,bigpiney,439,23NOV2019:06:30:00,7.2,12.47,3.4,2.6,2.6,2.8,2.4,88,89,86,0.152,-0.1,0.3,-0.7,4.056,2.4,192,23,4.1,-0.00005,-0.00006,33.0,34.4,50,0,1,0.0,5.62,0.00,0.00
15min,AgWx,bigpiney,439,23NOV2019:06:45:00,6.6,12.47,4.4,3.6,3.2,3.8,2.6,89,90,86,0.155,0.6,1.2,0.1,5.634,4.3,227,6.1,5.6,-0.00003,-0.00003,33.0,34.5,50,0,1,0.0,5.62,0.00,0.00
15min,AgWx,bigpiney,439,23NOV2019:07:00:00,6.3,12.47,6.1,5.4,4.5,5.4,3.6,87,88,86,0.171,1.6,2.6,0.6,3.223,3.4,227,8.3,6.0,-0.00004,-0.00004,33.0,34.4,50,0,1,0.0,5.62,0.00,0.00
15min,AgWx,bigpiney,439,23NOV2019:07:15:00,6.2,12.5,5.0,4.3,5.3,6.6,3.7,87,89,82,0.158,2.1,4.0,-0.4,2.521,2.8,285,49,3.9,-0.00005,-0.00005,33.0,34.4,50,2,1,0.0,5.62,0.00,0.00
15min,AgWx,bigpiney,439,23NOV2019:07:30:00,6.1,12.97,3.4,2.6,4.1,5.9,2.2,86,89,84,0.148,0.8,3.1,-1.6,0.921,1.7,3.9,26,3.9,-0.00005,-0.00007,33.0,34.4,50,12,1,0.0,5.62,0.00,0.00
15min,AgWx,bigpiney,439,23NOV2019:07:45:00,6.0,14.99,4.5,4.2,3.6,4.4,2.6,87,88,86,0.159,0.5,1.6,-0.5,0.504,1.3,259,23,2.4,-0.00009,-0.00009,33.0,34.4,50,42,1,0.0,5.62,0.00,0.00
15min,AgWx,bigpiney,439,23NOV2019:08:00:00,6.3,14.98,6.6,5.8,4.9,5.8,3.9,87,87,86,0.173,1.7,2.8,0.6,1.381,0.9,263,10,2.0,-0.00003,-0.00003,33.0,34.4,50,74,1,0.0,5.62,0.00,0.00
15min,AgWx,bigpiney,439,23NOV2019:08:15:00,7.3,14.98,8.3,7.9,6.8,7.9,5.8,87,88,87,0.191,3.8,5.0,2.7,0,0.3,212,24,1.9,0.00004,0.00005,33.0,34.4,50,109,1,0.0,5.62,0.00,0.00
15min,AgWx,bigpiney,439,23NOV2019:08:30:00,8.9,14.99,10.0,9.4,8.6,9.6,7.8,88,89,87,0.207,5.8,6.9,4.8,0.965,1.3,101,20,2.6,0.00014,0.00015,33.0,34.4,50,146,1,0.0,5.62,0.00,0.00
15min,AgWx,bigpiney,439,23NOV2019:08:45:00,11.0,14.99,9.7,9.2,9.6,9.9,9.1,88,89,87,0.202,6.8,7.3,6.1,2.083,1.4,68,17,2.6,0.00023,0.00025,33.0,34.4,50,183,1,0.0,5.62,0.00,0.00